Wind_Speed
21 22 22 22 22 22 22 22 22 22 22 21 20 20 20 21 22 24 27 29 31 33 35 36 37 38 38 39 39 38 37 37 36 35 33 33 34 33 32 30 29 28 27
21 21 21 21 22 22 22 22 22 21 21 20 19 19 19 19 20 21 23 26 28 30 32 35 36 37 38 39 39 40 40 39 38 37 36 35 34 34 34 33 32 31 30
19 20 21 21 22 22 22 22 21 21 20 19 18 18 17 17 17 18 19 21 24 27 29 31 34 37 38 39 40 41 41 41 40 39 37 37 36 35 35 35 34 33 32
19 20 21 22 23 22 22 22 22 21 20 19 17 16 15 15 15 15 16 17 19 21 24 27 30 33 35 38 40 41 42 42 41 41 40 39 37 36 35 35 36 35 34
19 20 21 22 23 23 22 22 22 21 20 19 18 16 15 13 12 12 13 14 15 18 20 23 26 29 31 34 37 39 41 41 42 41 41 40 38 36 38 36 36 36 36
19 20 21 22 22 23 22 22 22 22 21 20 19 17 16 14 13 11 11 11 12 15 17 19 22 24 27 30 33 36 39 40 40 39 40 41 40 37 38 37 36 36 36
20 20 21 21 22 22 23 22 23 23 22 21 20 19 17 15 14 12 11 10 11 12 13 16 18 21 24 26 28 32 35 37 37 38 39 39 40 39 37 37 37 37 37
19 20 20 21 22 22 23 23 23 23 23 22 21 20 19 17 15 14 12 10 9 9 10 12 15 17 20 22 24 27 30 33 35 35 36 37 37 38 37 37 37 37 38
19 20 21 21 22 22 23 23 23 23 23 23 22 21 20 18 17 15 14 12 10 9 9 9 11 13 16 19 21 24 27 29 32 33 34 34 35 35 35 36 36 37 38
18 19 21 21 22 23 23 23 24 24 24 24 23 23 22 21 19 17 16 14 13 11 9 9 9 11 13 15 17 20 23 26 29 31 32 32 33 34 35 34 35 35 36
18 19 20 21 22 23 24 23 24 24 24 24 24 24 23 22 21 19 17 16 15 12 10 9 8 8 10 12 14 16 18 21 24 27 29 30 31 32 33 34 34 34 35
17 18 19 21 22 23 23 24 24 24 25 25 25 25 25 24 22 21 19 18 17 15 13 10 8 6 6 8 10 13 15 17 20 23 25 28 29 31 31 33 34 34 35
16 17 18 20 21 22 23 24 24 24 25 26 25 25 25 25 24 22 21 21 19 17 15 12 9 6 4 5 7 10 12 14 16 19 22 24 26 27 29 30 32 33 33
16 17 18 19 20 21 22 23 24 24 25 25 25 25 25 25 25 23 22 22 21 20 18 14 11 7 4 3 4 7 8 10 12 15 18 21 23 24 26 29 31 32 33
15 16 17 18 19 20 21 22 23 24 25 25 25 25 25 25 25 24 23 23 22 21 19 17 13 10 7 4 3 4 6 7 9 12 15 17 19 21 23 25 28 29 31
14 15 16 17 18 19 20 21 22 23 24 24 24 24 25 26 26 25 24 23 23 23 22 19 16 12 9 7 5 3 3 5 7 9 12 14 16 17 19 21 24 26 28
13 14 15 16 18 18 19 20 21 21 22 23 23 23 24 25 25 25 24 24 24 23 23 22 18 15 11 9 7 5 3 3 4 6 8 11 13 15 16 17 20 22 24
13 14 15 16 17 18 18 19 20 20 21 22 22 23 23 24 24 24 24 24 23 23 23 22 20 17 14 12 9 7 5 3 3 4 6 8 10 11 14 15 17 19 21
13 14 14 15 16 17 18 18 19 19 20 21 21 22 22 23 23 23 23 23 23 23 22 22 21 19 17 14 12 10 8 6 4 2 3 6 8 9 10 12 14 16 18
13 14 14 15 16 17 17 18 18 19 19 20 20 21 21 22 22 22 22 22 22 22 21 21 20 19 17 16 14 11 10 8 6 3 1 2 4 5 7 9 11 13 14
14 14 15 16 16 17 17 18 18 18 19 19 20 20 20 21 21 21 21 21 21 21 20 20 20 19 18 16 15 13 12 10 7 5 2 1 1 2 5 7 8 9 11
15 15 16 17 17 17 17 18 18 19 19 19 19 20 20 20 19 20 20 20 20 19 19 19 19 18 18 17 15 14 13 11 9 7 4 3 1 0 2 3 4 6 8
16 17 17 17 18 18 18 18 19 19 19 20 19 19 19 19 19 18 19 19 19 19 18 18 18 17 17 16 15 14 12 12 10 8 6 4 2 1 0 2 3 4 6
18 18 18 19 19 19 19 19 19 20 20 20 20 20 19 19 19 18 18 18 18 18 17 17 17 16 15 15 14 13 12 11 10 8 7 5 4 2 1 1 2 3 4
19 20 20 20 21 21 21 21 21 21 21 21 21 21 20 20 19 19 18 17 17 17 17 16 16 15 14 14 13 12 11 10 9 8 7 5 3 3 2 0 1 2 4
21 22 22 22 23 23 23 23 23 22 22 22 22 22 21 21 20 19 19 18 18 17 17 16 16 15 14 13 12 12 11 10 9 8 6 5 4 3 2 1 1 3 3
Wind_Direction
340 340 338 336 334 331 329 327 323 319 316 310 303 296 288 280 273 267 262 258 256 253 251 249 248 246 245 244 242 238 237 237 236 235 235 236 235 233 232 232 232 232 231
345 346 346 344 342 339 337 335 332 328 324 318 312 304 296 288 279 271 266 261 257 253 251 249 247 246 245 243 242 240 238 237 236 234 235 236 235 234 234 233 232 233 233
351 351 352 352 351 349 346 345 342 339 334 328 321 313 306 297 286 278 271 264 259 255 251 249 247 246 245 242 240 239 238 237 236 235 236 236 235 234 235 234 233 233 233
356 357 358 358 357 356 355 354 353 351 347 344 339 331 323 312 299 288 279 269 262 258 253 250 248 246 245 243 240 238 237 236 236 235 235 235 235 234 234 234 233 233 234
0 0 0 1 1 1 1 1 0 359 357 355 352 347 340 332 320 304 291 278 268 261 257 253 249 247 244 243 240 237 235 235 235 236 236 236 235 235 234 234 233 233 234
4 3 2 3 3 4 6 6 6 6 4 3 1 358 354 349 339 325 308 292 279 269 263 256 251 248 245 243 240 237 235 234 234 235 236 236 236 236 234 233 234 233 233
7 6 5 6 6 8 8 9 9 11 11 10 8 6 3 359 354 346 332 314 296 282 270 260 253 249 245 242 239 237 235 234 234 235 235 236 237 238 237 235 235 235 234
10 10 10 10 10 11 12 12 13 14 15 14 12 11 9 6 2 358 351 340 324 304 286 269 257 250 246 243 239 237 235 235 234 234 234 236 237 238 239 239 238 235 234
13 14 14 14 13 13 14 15 16 16 16 16 15 14 12 10 7 5 0 353 341 326 307 286 266 256 249 244 240 237 235 235 235 235 235 237 238 239 239 240 240 237 236
16 17 17 16 17 17 17 17 18 19 19 19 18 17 16 14 12 9 5 0 354 343 327 305 282 264 254 246 242 239 236 235 235 235 236 237 237 238 238 238 238 238 237
19 19 18 18 19 20 20 20 21 22 22 22 21 20 18 15 13 12 10 8 4 358 348 332 310 281 260 248 243 238 235 235 235 235 235 236 236 237 237 237 238 238 237
20 19 19 20 21 21 22 23 24 24 24 23 23 23 21 20 18 18 17 14 9 5 0 350 332 305 277 257 246 240 237 237 237 236 236 235 236 237 237 238 240 240 239
20 19 19 20 21 22 23 24 25 25 25 25 24 24 24 24 24 23 22 20 17 14 9 2 354 339 307 271 251 243 239 237 237 235 234 234 235 236 237 239 240 239 238
18 19 18 19 20 21 21 23 23 24 24 24 24 25 24 24 25 25 24 23 22 21 19 16 14 8 350 307 264 248 243 240 237 233 231 231 233 236 238 239 240 241 239
15 15 16 16 17 18 18 19 20 22 23 23 23 23 23 24 25 25 25 25 24 23 21 22 21 21 15 358 310 270 254 246 239 233 230 230 232 236 237 238 239 239 238
10 10 11 12 13 14 15 15 16 18 20 21 22 22 22 22 24 24 25 24 24 24 24 24 23 24 24 19 10 335 289 260 244 238 234 234 236 237 237 237 237 237 237
3 4 5 7 8 10 11 12 13 15 17 18 19 19 20 20 22 23 23 24 25 25 25 26 26 27 26 23 19 11 348 294 263 248 240 238 236 236 236 236 236 236 236
355 358 360 1 3 4 6 8 10 11 13 15 16 16 17 18 19 20 21 23 24 24 25 27 28 29 30 28 24 17 9 349 300 258 239 233 231 235 234 235 236 236 236
347 350 353 355 357 359 1 2 3 6 8 9 11 13 14 15 16 18 19 20 21 22 23 25 27 29 30 30 28 25 22 16 8 327 246 233 226 230 230 234 235 232 231
340 342 344 347 349 351 353 356 357 359 1 3 5 6 8 10 12 14 15 17 18 19 21 22 24 26 28 28 28 26 23 22 14 4 325 228 225 228 227 229 230 224 222
330 333 335 337 340 342 344 347 350 352 354 356 358 359 1 3 5 8 11 12 14 16 18 20 21 23 24 26 28 28 27 22 19 16 14 352 243 225 222 226 223 218 217
322 324 327 329 331 334 336 339 341 343 345 347 349 351 353 355 357 359 3 6 8 11 13 15 16 19 21 23 26 28 29 28 29 30 36 42 44 230 214 217 219 218 216
315 318 320 322 324 327 329 331 333 335 337 339 341 343 345 347 349 351 354 357 360 2 4 7 9 11 14 18 22 24 28 30 32 37 40 40 37 50 185 196 199 205 212
309 311 313 315 317 320 322 324 326 328 330 332 334 335 337 339 341 342 344 347 350 353 354 357 0 3 6 9 13 17 22 25 29 35 40 41 44 43 58 204 205 203 209
305 306 308 309 311 312 314 316 319 320 322 324 326 328 329 331 333 334 334 336 340 343 345 348 350 353 356 360 5 9 12 14 19 25 28 28 26 21 29 88 184 190 196
301 302 303 305 306 307 308 310 312 314 314 315 317 319 321 322 324 325 326 326 328 330 333 336 338 341 343 346 350 354 358 2 6 9 13 18 24 24 28 56 156 173 181
Height
5856 5851 5847 5842 5838 5833 5829 5824 5820 5815 5811 5807 5804 5802 5800 5799 5798 5798 5797 5798 5799 5800 5802 5805 5808 5811 5814 5818 5822 5826 5830 5833 5837 5840 5843 5847 5849 5853 5856 5859 5862 5864 5867
5854 5849 5845 5840 5835 5830 5826 5821 5816 5811 5807 5803 5799 5797 5794 5793 5792 5791 5790 5790 5791 5792 5794 5796 5799 5802 5805 5809 5813 5817 5821 5825 5829 5832 5836 5839 5843 5846 5849 5852 5855 5858 5861
5853 5848 5843 5838 5833 5828 5823 5818 5813 5808 5803 5799 5795 5792 5790 5788 5786 5785 5784 5784 5784 5785 5786 5788 5790 5793 5796 5800 5804 5808 5812 5817 5820 5824 5828 5832 5835 5838 5842 5845 5848 5851 5855
5852 5847 5842 5837 5832 5827 5822 5816 5811 5806 5801 5796 5792 5788 5786 5783 5781 5780 5779 5778 5778 5778 5779 5781 5782 5785 5787 5791 5795 5799 5803 5808 5812 5816 5820 5823 5826 5830 5834 5838 5841 5844 5848
5851 5846 5842 5837 5832 5826 5821 5816 5810 5805 5800 5795 5791 5787 5783 5780 5777 5776 5774 5773 5773 5773 5773 5774 5775 5777 5779 5782 5786 5790 5794 5799 5803 5807 5811 5815 5818 5822 5826 5830 5833 5837 5840
5851 5846 5841 5837 5831 5826 5821 5815 5810 5805 5799 5794 5790 5786 5782 5778 5775 5773 5771 5769 5768 5768 5768 5768 5769 5771 5772 5775 5778 5781 5785 5790 5795 5799 5803 5807 5811 5814 5818 5822 5825 5828 5832
5850 5846 5841 5836 5831 5826 5821 5816 5810 5805 5799 5794 5790 5785 5781 5777 5774 5771 5768 5766 5765 5763 5763 5763 5763 5764 5766 5768 5770 5774 5777 5782 5786 5791 5795 5799 5803 5807 5811 5814 5817 5821 5824
5851 5846 5841 5837 5832 5827 5821 5816 5811 5805 5800 5795 5790 5785 5781 5777 5773 5770 5767 5764 5762 5760 5759 5758 5759 5759 5760 5762 5764 5767 5770 5774 5778 5782 5787 5791 5795 5799 5802 5806 5810 5813 5817
5851 5847 5842 5837 5832 5827 5822 5817 5812 5806 5801 5796 5791 5786 5781 5777 5773 5769 5766 5763 5760 5758 5756 5755 5755 5755 5756 5757 5759 5761 5764 5768 5771 5775 5779 5783 5787 5791 5795 5798 5802 5805 5809
5851 5847 5843 5838 5833 5828 5823 5818 5813 5808 5802 5797 5792 5787 5782 5777 5773 5769 5766 5762 5759 5756 5754 5752 5752 5751 5751 5752 5754 5756 5758 5761 5765 5769 5773 5776 5780 5783 5787 5791 5794 5797 5801
5852 5848 5844 5839 5835 5830 5825 5820 5815 5809 5804 5799 5794 5789 5783 5778 5774 5769 5766 5762 5758 5755 5753 5750 5749 5748 5748 5749 5750 5752 5754 5756 5759 5762 5766 5769 5773 5776 5780 5783 5786 5790 5793
5853 5849 5845 5841 5836 5832 5827 5822 5817 5812 5806 5801 5796 5791 5785 5780 5775 5770 5766 5762 5758 5755 5751 5749 5747 5746 5745 5746 5747 5748 5750 5752 5754 5756 5759 5763 5766 5769 5773 5775 5779 5782 5786
5854 5850 5846 5842 5838 5833 5829 5824 5819 5814 5809 5803 5798 5793 5788 5782 5777 5772 5768 5764 5759 5755 5751 5748 5746 5744 5744 5744 5744 5745 5746 5748 5749 5751 5754 5757 5760 5763 5766 5768 5771 5774 5778
5855 5851 5847 5843 5839 5835 5831 5826 5821 5816 5811 5806 5801 5795 5790 5785 5780 5775 5770 5766 5761 5757 5753 5749 5746 5744 5743 5743 5743 5743 5744 5744 5745 5747 5749 5751 5754 5757 5759 5762 5764 5767 5770
5855 5852 5848 5845 5841 5837 5832 5828 5823 5818 5813 5808 5803 5798 5793 5788 5782 5777 5773 5768 5763 5759 5754 5750 5747 5745 5744 5743 5742 5742 5742 5742 5742 5743 5745 5747 5749 5751 5753 5755 5758 5760 5763
5856 5852 5849 5845 5842 5838 5834 5829 5825 5820 5815 5811 5806 5801 5796 5790 5785 5780 5775 5770 5766 5761 5757 5752 5749 5746 5744 5743 5742 5741 5740 5740 5740 5741 5741 5743 5744 5746 5747 5749 5751 5754 5757
5856 5853 5849 5846 5842 5839 5835 5831 5826 5822 5817 5813 5808 5803 5798 5793 5788 5783 5778 5773 5768 5764 5759 5755 5751 5748 5745 5744 5742 5741 5739 5739 5738 5738 5739 5739 5740 5741 5743 5744 5746 5748 5751
5855 5852 5849 5846 5843 5839 5835 5832 5828 5823 5819 5815 5810 5805 5800 5796 5791 5786 5781 5776 5771 5767 5762 5758 5754 5750 5748 5745 5743 5741 5740 5738 5737 5737 5736 5737 5737 5738 5739 5740 5742 5743 5746
5854 5851 5849 5846 5842 5839 5836 5832 5828 5824 5820 5816 5812 5807 5803 5798 5793 5789 5784 5779 5774 5770 5765 5761 5757 5754 5750 5747 5745 5742 5740 5738 5737 5736 5735 5735 5735 5736 5736 5737 5738 5739 5741
5853 5850 5847 5845 5842 5839 5835 5832 5828 5825 5821 5817 5813 5809 5804 5800 5795 5791 5786 5782 5777 5773 5768 5764 5760 5756 5753 5750 5747 5744 5741 5739 5737 5736 5734 5734 5734 5734 5735 5735 5735 5736 5738
5851 5848 5846 5843 5840 5837 5834 5831 5828 5824 5821 5817 5813 5809 5805 5801 5797 5793 5788 5784 5780 5775 5771 5767 5763 5759 5755 5752 5749 5746 5743 5741 5738 5736 5735 5734 5733 5733 5733 5734 5734 5735 5736
5848 5846 5844 5841 5838 5836 5833 5830 5827 5824 5820 5817 5813 5809 5805 5801 5798 5794 5790 5786 5782 5778 5774 5770 5766 5762 5758 5755 5751 5748 5745 5742 5740 5738 5736 5735 5735 5734 5734 5733 5733 5734 5735
5845 5843 5841 5838 5836 5833 5830 5828 5825 5822 5818 5815 5812 5808 5805 5801 5797 5794 5790 5787 5783 5779 5775 5772 5768 5764 5760 5757 5754 5750 5748 5745 5742 5740 5738 5737 5736 5735 5734 5734 5734 5734 5734
5841 5839 5837 5835 5832 5830 5827 5825 5822 5819 5816 5813 5810 5807 5803 5800 5797 5793 5790 5786 5783 5779 5776 5773 5769 5765 5762 5759 5756 5753 5750 5747 5744 5742 5740 5738 5737 5736 5735 5734 5734 5734 5734
5837 5835 5833 5830 5828 5826 5823 5821 5818 5816 5813 5810 5807 5804 5801 5798 5795 5792 5788 5785 5782 5779 5776 5773 5769 5766 5763 5760 5757 5754 5752 5749 5746 5744 5742 5740 5739 5737 5736 5735 5734 5734 5734
5831 5829 5827 5825 5823 5821 5818 5816 5814 5811 5809 5806 5803 5800 5798 5795 5792 5789 5786 5783 5781 5778 5775 5772 5769 5766 5763 5760 5758 5755 5753 5750 5748 5745 5743 5742 5740 5738 5737 5736 5735 5735 5734